When you browse on this site, cookies collect data to enhance your experience and personalize the content and advertising you see.
Visit our Privacy Policy to learn more. By continuing to use the site, you agree to this use of cookies and data.
  • Em Portugal
  • Lista de países
  • Para 7 dias
  • Temperatura da água
  • Mapas de satélite
  • Mapa do tempo
  • Widgets de tempo
  • user-avatar
    Iniciar Sessão

    Previsão horária em Uige

    Hoje, 13 Dezembro, Quinta-feira

    Tempo Temperatura Precipitação Vento Pressão Humidade
    00:00 +19°C° 0 mm 0 m/s 692 mmHg 96%
    01:00 +19°C° 0 mm 0 m/s 692 mmHg 97%
    02:00 +19°C° 0.1 mm 0 m/s 692 mmHg 97%
    03:00 +19°C° 0.1 mm 0 m/s 692 mmHg 97%
    04:00 +19°C° 0.1 mm 0 m/s 692 mmHg 98%
    05:00 +20°C° 0 mm 0 m/s 692 mmHg 97%
    06:00 +20°C° 0 mm 0 m/s 693 mmHg 97%
    07:00 +21°C° 0 mm 0 m/s 693 mmHg 96%
    08:00 +22°C° 0.4 mm 0 m/s 693 mmHg 91%
    09:00 +24°C° 0.4 mm 0 m/s 694 mmHg 87%
    10:00 +26°C° 0.4 mm 0 m/s 694 mmHg 82%
    11:00 +28°C° 0.7 mm 1 m/s 693 mmHg 77%
    12:00 +29°C° 0.7 mm 1 m/s 693 mmHg 71%
    13:00 +30°C° 0.7 mm 1 m/s 692 mmHg 66%
    14:00 +29°C° 1.1 mm 1 m/s 692 mmHg 72%
    15:00 +28°C° 1.1 mm 1 m/s 691 mmHg 79%
    16:00 +28°C° 1.1 mm 1 m/s 691 mmHg 85%
    17:00 +26°C° 0.8 mm 1 m/s 691 mmHg 88%
    18:00 +25°C° 0.8 mm 1 m/s 691 mmHg 92%
    19:00 +21°C° 0.8 mm 0 m/s 691 mmHg 95%
    20:00 +21°C° 0.9 mm 0 m/s 692 mmHg 96%
    21:00 +20°C° 0.9 mm 0 m/s 692 mmHg 96%
    22:00 +20°C° 0.9 mm 0 m/s 693 mmHg 97%
    23:00 +20°C° 0.9 mm 0 m/s 693 mmHg 97%

    Amanhã, 14 Dezembro, Sexta-feira

    Tempo Temperatura Precipitação Vento Pressão Humidade
    00:00 +20°C° 0.9 mm 0 m/s 693 mmHg 96%
    01:00 +20°C° 0.9 mm 0 m/s 693 mmHg 96%
    02:00 +20°C° 0.8 mm 0 m/s 693 mmHg 97%
    03:00 +22°C° 0.8 mm 1 m/s 692 mmHg 97%
    04:00 +22°C° 0.8 mm 1 m/s 692 mmHg 98%
    05:00 +22°C° 0.5 mm 1 m/s 693 mmHg 98%
    06:00 +22°C° 0.5 mm 1 m/s 693 mmHg 98%
    07:00 +22°C° 0.5 mm 1 m/s 694 mmHg 98%
    08:00 +22°C° 0.7 mm 1 m/s 694 mmHg 97%
    09:00 +23°C° 0.7 mm 1 m/s 694 mmHg 95%
    10:00 +23°C° 0.7 mm 1 m/s 694 mmHg 94%
    11:00 +24°C° 0.3 mm 1 m/s 694 mmHg 89%
    12:00 +25°C° 0.3 mm 1 m/s 693 mmHg 84%
    13:00 +27°C° 0.3 mm 1 m/s 693 mmHg 79%
    14:00 +26°C° 0.7 mm 1 m/s 692 mmHg 82%
    15:00 +26°C° 0.7 mm 1 m/s 692 mmHg 85%
    16:00 +26°C° 0.7 mm 1 m/s 691 mmHg 89%
    17:00 +25°C° 0.7 mm 1 m/s 692 mmHg 91%
    18:00 +23°C° 0.7 mm 1 m/s 692 mmHg 94%
    19:00 +22°C° 0.7 mm 1 m/s 692 mmHg 97%
    20:00 +22°C° 0.3 mm 1 m/s 693 mmHg 97%
    21:00 +22°C° 0.3 mm 1 m/s 693 mmHg 98%
    22:00 +19°C° 0.3 mm 0 m/s 694 mmHg 98%
    23:00 +21°C° 0 mm 1 m/s 693 mmHg 98%

    Depois de amanhã, 15 Dezembro, Sábado

    Tempo Temperatura Precipitação Vento Pressão Humidade
    00:00 +21°C° 0 mm 1 m/s 693 mmHg 98%
    01:00 +21°C° 0 mm 1 m/s 693 mmHg 99%
    02:00 +21°C° 0 mm 1 m/s 692 mmHg 99%
    03:00 +21°C° 0 mm 1 m/s 692 mmHg 99%
    04:00 +21°C° 0 mm 1 m/s 692 mmHg 99%
    05:00 +21°C° 0 mm 1 m/s 692 mmHg 98%
    06:00 +21°C° 0 mm 1 m/s 693 mmHg 98%
    07:00 +21°C° 0 mm 1 m/s 693 mmHg 98%
    08:00 +22°C° 0.1 mm 1 m/s 694 mmHg 93%
    09:00 +23°C° 0.1 mm 1 m/s 694 mmHg 88%
    10:00 +24°C° 0.1 mm 1 m/s 694 mmHg 83%
    11:00 +24°C° 0.3 mm 1 m/s 694 mmHg 84%
    12:00 +24°C° 0.3 mm 1 m/s 693 mmHg 85%
    13:00 +24°C° 0.3 mm 1 m/s 693 mmHg 86%
    14:00 +24°C° 0.2 mm 1 m/s 692 mmHg 86%
    15:00 +24°C° 0.2 mm 1 m/s 691 mmHg 87%
    16:00 +24°C° 0.2 mm 1 m/s 691 mmHg 87%
    17:00 +23°C° 0 mm 1 m/s 691 mmHg 89%
    18:00 +22°C° 0 mm 1 m/s 691 mmHg 90%
    19:00 +21°C° 0 mm 1 m/s 692 mmHg 91%
    20:00 +21°C° 0 mm 1 m/s 692 mmHg 90%
    21:00 +21°C° 0 mm 1 m/s 692 mmHg 90%
    22:00 +20°C° 0 mm 1 m/s 693 mmHg 89%
    23:00 +20°C° 0 mm 1 m/s 692 mmHg 90%

    16 Dezembro, Domingo

    Tempo Temperatura Precipitação Vento Pressão Humidade
    00:00 +20°C° 0 mm 1 m/s 692 mmHg 90%
    01:00 +20°C° 0 mm 1 m/s 692 mmHg 90%
    02:00 +20°C° 0 mm 1 m/s 692 mmHg 90%
    03:00 +20°C° 0 mm 1 m/s 691 mmHg 91%
    04:00 +18°C° 0 mm 0 m/s 691 mmHg 91%
    05:00 +18°C° 0 mm 0 m/s 692 mmHg 90%
    06:00 +19°C° 0 mm 0 m/s 693 mmHg 88%
    07:00 +20°C° 0 mm 0 m/s 693 mmHg 87%
    08:00 +24°C° 0 mm 1 m/s 693 mmHg 81%
    09:00 +25°C° 0 mm 1 m/s 694 mmHg 75%
    10:00 +27°C° 0 mm 1 m/s 694 mmHg 69%
    11:00 +28°C° 0 mm 1 m/s 693 mmHg 67%
    12:00 +28°C° 0 mm 1 m/s 693 mmHg 65%
    13:00 +28°C° 0 mm 1 m/s 692 mmHg 63%
    14:00 +28°C° 0 mm 1 m/s 692 mmHg 66%
    15:00 +27°C° 0 mm 1 m/s 691 mmHg 69%
    16:00 +27°C° 0 mm 1 m/s 691 mmHg 73%
    17:00 +25°C° 0 mm 1 m/s 691 mmHg 78%
    18:00 +24°C° 0 mm 1 m/s 691 mmHg 82%
    19:00 +20°C° 0 mm 0 m/s 691 mmHg 87%
    20:00 +20°C° 0.3 mm 0 m/s 692 mmHg 89%
    21:00 +19°C° 0.3 mm 0 m/s 692 mmHg 90%
    22:00 +19°C° 0.3 mm 0 m/s 693 mmHg 92%
    23:00 +19°C° 0.5 mm 0 m/s 692 mmHg 93%

    17 Dezembro, Segunda-feira

    Tempo Temperatura Precipitação Vento Pressão Humidade
    00:00 +19°C° 0.5 mm 0 m/s 692 mmHg 95%
    01:00 +18°C° 0.5 mm 0 m/s 692 mmHg 96%
    02:00 +19°C° 0.1 mm 0 m/s 692 mmHg 97%
    03:00 +19°C° 0.1 mm 0 m/s 692 mmHg 98%
    04:00 +19°C° 0.1 mm 0 m/s 692 mmHg 99%
    05:00 +19°C° 0 mm 0 m/s 692 mmHg 98%
    06:00 +22°C° 0 mm 1 m/s 693 mmHg 97%
    07:00 +22°C° 0 mm 1 m/s 693 mmHg 96%
    08:00 +24°C° 0.1 mm 1 m/s 693 mmHg 89%
    09:00 +25°C° 0.1 mm 1 m/s 694 mmHg 83%
    10:00 +27°C° 0.1 mm 1 m/s 694 mmHg 76%
    11:00 +28°C° 0.3 mm 1 m/s 693 mmHg 71%
    12:00 +29°C° 0.3 mm 1 m/s 693 mmHg 66%
    13:00 +30°C° 0.3 mm 2 m/s 692 mmHg 61%
    14:00 +29°C° 0.4 mm 2 m/s 691 mmHg 66%
    15:00 +29°C° 0.4 mm 1 m/s 691 mmHg 72%
    16:00 +28°C° 0.4 mm 1 m/s 691 mmHg 77%
    17:00 +26°C° 0.4 mm 1 m/s 691 mmHg 82%
    18:00 +24°C° 0.4 mm 1 m/s 691 mmHg 88%
    19:00 +21°C° 0.4 mm 0 m/s 691 mmHg 93%
    20:00 +20°C° 0.3 mm 0 m/s 692 mmHg 94%
    21:00 +20°C° 0.3 mm 0 m/s 692 mmHg 94%
    22:00 +20°C° 0.3 mm 0 m/s 692 mmHg 94%
    23:00 +19°C° 0.2 mm 0 m/s 692 mmHg 96%

    18 Dezembro, Terça-feira

    Tempo Temperatura Precipitação Vento Pressão Humidade
    00:00 +19°C° 0.2 mm 0 m/s 692 mmHg 97%
    01:00 +21°C° 0.2 mm 1 m/s 691 mmHg 98%
    02:00 +19°C° 0 mm 0 m/s 691 mmHg 98%
    03:00 +19°C° 0 mm 0 m/s 691 mmHg 98%
    04:00 +19°C° 0 mm 0 m/s 691 mmHg 99%
    05:00 +19°C° 0 mm 0 m/s 692 mmHg 98%
    06:00 +19°C° 0 mm 0 m/s 692 mmHg 97%
    07:00 +20°C° 0 mm 0 m/s 693 mmHg 97%
    08:00 +24°C° 0.1 mm 1 m/s 693 mmHg 88%
    09:00 +26°C° 0.1 mm 1 m/s 693 mmHg 79%
    10:00 +29°C° 0.1 mm 1 m/s 693 mmHg 70%
    11:00 +30°C° 0.2 mm 1 m/s 693 mmHg 66%
    12:00 +30°C° 0.2 mm 1 m/s 692 mmHg 62%
    13:00 +31°C° 0.2 mm 2 m/s 691 mmHg 57%
    14:00 +31°C° 0.1 mm 2 m/s 691 mmHg 60%
    15:00 +30°C° 0.1 mm 2 m/s 690 mmHg 63%
    16:00 +30°C° 0.1 mm 2 m/s 690 mmHg 66%
    17:00 +27°C° 0.7 mm 2 m/s 690 mmHg 75%
    18:00 +25°C° 0.7 mm 1 m/s 690 mmHg 84%
    19:00 +23°C° 0.7 mm 1 m/s 690 mmHg 93%
    20:00 +23°C° 0.4 mm 1 m/s 691 mmHg 95%
    21:00 +22°C° 0.4 mm 1 m/s 691 mmHg 96%
    22:00 +22°C° 0.4 mm 1 m/s 692 mmHg 97%
    23:00 +21°C° 0 mm 1 m/s 692 mmHg 98%
    Mostrar mais